Regional Weather Roundup
Issued by NWS

Home | Current Version | Previous Version | Text Only | Print | Product List | Glossary Off
Versions: 1 2 3 4 5 6 7 8 9 10 11 12 13 14 15 16 17 18 19 20 21 22 23 24 25 26 27 28 29 30 31 32 33 34 35 36 37 38 39 40 41 42 43 44 45 46 47 48

000
ASUS45 KSLC 031410
RWRUT

UTAH REGIONAL WEATHER ROUNDUP
NATIONAL WEATHER SERVICE SALT LAKE CITY UT
800 AM MDT THU SEP 03 2015

UTZ001>011-023>025-031500-

NORTHERN UTAH

CITY           SKY/WX    TMP DP  RH WIND       PRES   REMARKS
BRIGHAM CITY     N/A     77  34  21 S18G24    29.90R
HILL AFB       MOSUNNY   74  39  29 S16G25    29.94R
LOGAN            N/A     74  39  28 S13       29.89R
OGDEN            N/A     76  39  26 S21G29    29.91R
PROVO AIRPORT  PTSUNNY   66  41  39 SE8       30.00R
SALT LAKE CITY PTSUNNY   74  42  31 S12G22    29.92R
VERNAL           N/A     57  43  59 W6        30.05R
WENDOVER         N/A     73  36  25 S18       29.87R
HEBER CITY       N/A     70  36  28 SW9G23    30.05R
WEST JORDAN    SUNNY     72  39  30 S14       29.96S

$$

UTZ012>022-026-027-031500-

SOUTHERN/CENTRAL UTAH

CITY           SKY/WX    TMP DP  RH WIND       PRES   REMARKS
BLANDING         N/A     60  50  69 CALM      30.25R
BRYCE CANYON     N/A     51  41  68 CALM      30.24S
CEDAR CITY       N/A     64  39  39 S8        30.08R
DELTA            N/A     67  36  31 S10       30.01R
HANKSVILLE       N/A     70  46  43 CALM      30.04R
MILFORD          N/A     66  39  37 SW10      30.03R
MOAB/CYNLANDS    N/A     73  49  42 SE10      30.02R
PRICE            N/A     64  42  44 E8        30.10R
ST GEORGE        N/A     73  43  33 SE9       29.95R
KANAB            N/A     59  48  67 N3        30.15R

$$

REGIONAL REPORTS     COLORADO/ARIZONA

CITY           SKY/WX    TMP DP  RH WIND       PRES   REMARKS
CRAIG, CO        N/A     53  49  86 CALM      30.14R
GRAND JUNCTION PTSUNNY   69  50  50 SE14      30.07R
RIFLE          PTSUNNY   58  53  84 CALM      30.14R
MONTROSE       RAIN      59  55  87 SE13      30.21R FOG
CORTEZ         CLOUDY    61  57  87 NE3       30.19R
PAGE, AZ         N/A     70  50  49 S5        30.05R
GRAND CANYON     N/A     52  47  83 NE5       30.22R
KINGMAN          N/A     68  40  35 SE9       29.99R
FLAGSTAFF        N/A     52  44  74 CALM      30.26R

$$

REGIONAL REPORTS    NEVADA/IDAHO/WYOMING

CITY           SKY/WX    TMP DP  RH WIND       PRES   REMARKS
LAS VEGAS, NV  MOCLDY    81  32  17 S7        29.82R
ELY              N/A     58  36  43 S18       30.03S
ELKO             N/A     54  31  41 NW5       29.94R
POCATELLO, ID    N/A     60  39  45 SW10      29.93R
BURLEY           N/A     59  39  47 W14G23    29.89S
EVANSTON, WY     N/A     61  36  39 SW13      30.11S
ROCK SPRINGS     N/A     62  39  42 SE8       30.11R
KEMMERER         N/A     57  34  41 CALM      30.12S

$$


USA.gov is the U.S. government's official web portal to all federal, state and local government web resources and services.